Location: Newark
(54.9144°N, 23.9094°E)
Time: 14:38:56
(UTC+00:00)

X-37B - Visible Passes

Search period start: 18 September 2020 00:00
Search period end: 28 September 2020 00:00
Orbit: 386 x 387 km, 45.0° (Epoch: 15 September)

Date Brightness Start Highest point End Pass type
(mag) Time Alt. Az. Time Alt. Az. Time Alt. Az.
18 Sep 3.2 01:52:47 12° SSE 01:52:47 12° SSE 01:53:32 10° SE visible
18 Sep 2.9 03:26:08 10° SW 03:27:51 14° S 03:29:34 10° SSE visible
19 Sep 2.7 02:29:10 14° S 02:29:33 14° S 02:31:23 10° SE visible
20 Sep 2.9 03:05:42 10° SW 03:07:02 12° SSW 03:08:22 10° SSE visible
21 Sep 3.1 02:09:48 12° SSE 02:09:48 12° SSE 02:10:28 10° SSE visible
